Location: Potomac Astrometric Observatory
(39.0475°N, 77.2064°W)
Time: 09:36:17
(UTC-04:00)

N. Korean satellite - Visible Passes

Search period start: 20 October 2019 00:00
Search period end: 30 October 2019 00:00
Orbit: 455 x 508 km, 97.2° (Epoch: 19 October)

Date Brightness Start Highest point End Pass type
(mag) Time Alt. Az. Time Alt. Az. Time Alt. Az.
20 Oct 10.1 19:16:32 10° SW 19:18:28 14° W 19:20:24 10° WNW visible
21 Oct 8.1 06:42:07 10° NNE 06:45:36 42° E 06:49:06 10° S visible
21 Oct 8.8 18:49:58 10° SSW 18:53:01 30° W 18:56:06 10° NNW visible
22 Oct 9.6 06:17:26 10° NE 06:20:13 20° E 06:23:00 10° SE visible
24 Oct 6.9 06:59:25 10° NNE 07:03:05 77° ESE 07:06:47 10° S visible
24 Oct 9.8 19:08:07 10° SW 19:10:32 18° W 19:12:59 10° NW visible
25 Oct 8.6 06:34:23 10° NNE 06:37:45 34° E 06:41:08 10° SSE visible
25 Oct 8.2 18:41:53 10° S 18:45:07 39° W 18:48:24 10° NNW visible
26 Oct 10.0 06:09:53 10° NE 06:12:19 17° E 06:14:46 10° SE visible
27 Oct 10.4 19:27:15 10° WSW 19:28:06 11° W 19:28:57 10° WNW visible
28 Oct 7.3 06:51:34 10° NNE 06:55:14 60° E 06:58:54 10° S visible
28 Oct 9.4 18:59:49 10° SSW 19:02:36 23° W 19:05:25 10° NW visible
29 Oct 9.1 06:26:39 10° NE 06:29:51 27° E 06:33:03 10° SSE visible
29 Oct 7.6 18:33:49 10° S 18:37:10 51° W 18:40:36 10° NNW visible
